www.pogodaiklimat.ru

Погода и климат >> Архив погоды >> Россия >> Карачаево-Черкессия >> Зеленчукская


ПОГОДА в Зеленчукской

  • Прогноз погоды в Зеленчукской
  • Монитор погоды в Зеленчукской

АРХИВ ПОГОДЫ в Зеленчукской

Время (UTC), дата Ветер
(напр.,м/с)
 
Видим.   Явления Облачность Т
(С)
Тd
(С)
f
(%)
Тe
(С)
Тes
(С)
Комфортность P
(гПа)
Po
(гПа)
Тmin
(С)
Tmax
(С)
R
(мм)
R24
(мм)
S
(см)
21 19.03 Ю 2 50 км ясно -0.8 -2.1 91 -5 -5 1025.5 913.5
00 20.03 Ю 1 50 км ясно -2.7 -3.2 96 -5 -5 1025.6 912.8
03 20.03 Ю 1 50 км ясно -3.7 -4.2 96 -6 -6 1026.0 912.7 -4.1
06 20.03 В 1 50 км ясно +7.6 -2.3 49 +7 +14 1021.0 912.6
09 20.03 ЮВ 2 50 км 1/0
[Ac trans]
+13.9 -3.8 29 +14 +25 опасность
простуды
1017.4 911.5
12 20.03 СВ 2 50 км 1/0
[Ac trans]
+16.0 -2.1 29 +16 +23 1015.7 910.8
15 20.03 СЗ 2 50 км ясно +9.7 +0.4 52 +9 +9 1019.0 911.6 +16.3
18 20.03 Ю 2 50 км ясно +3.1 -0.4 78 0 0 1023.0 912.8
21 20.03 Ю 2 50 км ясно -0.6 -1.9 91 -4 -4 1024.4 912.6
00 21.03 штиль 0 50 км ясно -2.9 -3.8 93 -4 -4 1025.6 912.7
03 21.03 штиль 0 50 км ясно -3.5 -3.9 97 -5 -5 1026.6 913.4 -3.5
06 21.03 штиль 0 50 км 4/0
[Ac trans]
+7.4 +0.2 60 +7 +12 1022.7 914.1
09 21.03 СВ 2 50 км 8/8 600 м
[Cu med, cong]
+11.8 +0.9 47 +11 +14 1020.5 913.7
12 21.03 С 5
{10}
50 км 9/6 600 м
[Cu med, cong Ac trans]
+9.5 +1.8 59 +7 +7 1020.5 912.9
15 21.03 С 3
{11}
20 км 10/10 600 м
[Cb calv]
+5.0 +1.7 79 +2 +2 1023.8 914.2 +12.9
18 21.03 СВ 2 10 км слаб. ливневой дождь 10/10 600 м
[Cb calv]
+3.7 +1.7 87 +1 +1 1025.4 915.2
21 21.03 В 1 10 км 10/10 600 м
[Cb calv]
+3.3 +1.4 87 +2 +2 1025.4 915.0
00 22.03 ЮЗ 1 20 км в посл. час ливневой дождь 10/10 600 м
[Cb calv]
+2.0 +1.9 99 0 0 1025.3 914.4
03 22.03 В 1 20 км 10/10 600 м
[Sc]
+1.4 +1.1 98 -1 -1 1025.0 913.9 +1.4 2
06 22.03 СЗ 1 20 км 10/10 600 м
[Cb calv]
+2.1 +0.5 89 0 0 1024.8 914.0
09 22.03 Ю 2 4000 м слаб. ливневой снег 10/10 600 м
[Cb calv]
+1.4 -1.3 82 -2 -2 1025.0 913.9
12 22.03 Ю 1 20 км {ливн. осадки} 9/9 600 м
[Sc]
+4.1 -0.5 72 +3 +4 1022.5 912.7
15 22.03 штиль 0 50 км 10/5 600 м
[Sc Ac trans Ci fib]
+4.2 -1.4 67 +4 +4 1020.8 911.2 +5.8 0.8
18 22.03 Ю 1 50 км 10/0
[Ac trans Ci fib]
+0.5 -1.4 87 -1 -1 1022.6 911.4
21 22.03 штиль 0 50 км 10/0
[Ac trans Ci fib]
+0.4 -1.1 90 -1 -1 1019.9 909.0
00 23.03 штиль 0 50 км 10/0
[Ac und]
+0.1 -1.0 92 -1 -1 1017.2 906.4
03 23.03 З 1 50 км 10/0
[Ac und]
0.0 -1.2 92 -2 -2 1014.8 904.3 -0.3
06 23.03 З 2 20 км 10/6 600 м
[Sc Ac trans Ci fib]
+2.8 -2.2 70 0 +1 1014.8 905.3
09 23.03 С 1 10 км 10/10 600 м
[Cb calv]
+0.4 -1.0 90 -2 -2 1015.7 905.8
12 23.03 С 4 4000 м слаб. ливневой снег 10/10 600 м
[Cb calv]
-1.2 -3.9 82 -7 -7 1015.7 904.5
15 23.03 СЗ 1 2000 м слаб. ливневой снег 10/10 600 м
[Cb calv]
-2.7 -3.7 93 -5 -5 1016.8 905.0 +3.4 1
18 23.03 З 1 2000 м слаб. ливневой снег 10/10 600 м
[Cb calv]
-3.5 -4.1 96 -6 -6 1018.6 906.2
21 23.03 штиль 0 2000 м слаб. ливневой снег 10/10 600 м
[Cb calv]
-3.6 -4.4 94 -5 -5 1018.8 906.4
00 24.03 штиль 0 20 км в посл. час ливневой снег 10/10 600 м
[Sc]
-5.0 -5.6 96 -6 -6 1018.9 905.9
03 24.03 штиль 0 20 км 10/10 600 м
[Sc]
-7.8 -8.1 98 -9 -9 1020.8 906.5 -8.3 2 4
06 24.03 штиль 0 2000 м дымка 10/10 600 м
[Sc]
-3.2 -4.4 91 -4 -4 1019.7 907.4
09 24.03 СЗ 1 50 км 8/8 600 м
[Cu med, cong Ci fib]
+0.6 -3.6 73 -1 +2 1017.5 906.8
12 24.03 СВ 3 50 км 9/9 600 м
[Cb calv]
+2.9 -3.8 61 -1 0 1015.1 905.6
15 24.03 С 2 4000 м слаб. ливневой снег 10/10 600 м
[Cb calv]
-0.6 -2.5 87 -4 -4 1018.2 907.0 +5.8 0.3
18 24.03 ЮВ 1 20 км {ливн. осадки} 10/10 600 м
[Sc]
-1.2 -2.0 94 -3 -3 1019.2 907.8
21 24.03 С 2 20 км 10/10 600 м
[Sc]
-2.0 -2.6 96 -6 -6 1020.2 908.3
00 25.03 З 1 20 км 10/10 600 м
[Sc]
-2.0 -4.0 86 -4 -4 1020.8 908.8
03 25.03 Ю 1 20 км 10/10 600 м
[Sc]
-2.1 -4.3 85 -4 -4 1020.7 908.7 -2.1 0.4 1
06 25.03 С 1 50 км 5/0
[Ac trans]
+0.9 -4.2 69 -1 +4 1018.9 908.2
09 25.03 З 1 50 км 1/0
[Ac trans]
+5.6 -4.1 50 +5 +19 опасность
простуды
1015.7 907.1
12 25.03 С 3 50 км 3/0
[Ac trans]
+8.5 -3.9 41 +7 +12 1013.4 906.1
15 25.03 СВ 2 50 км 8/0
[Ac trans]
+5.7 -4.4 48 +4 +4 1015.2 906.7 +9.4
18 25.03 ЮЗ 1 50 км 4/0
[Ac trans]
+1.7 -4.9 62 0 0 1017.4 907.2
21 25.03 Ю 2 50 км 4/0
[Ac trans]
-2.0 -4.6 82 -6 -6 1018.3 906.6
00 26.03 штиль 0 50 км 3/0
[Ac trans]
-4.6 -6.1 89 -6 -6 1019.5 906.6
03 26.03 Ю 1 50 км ясно -5.1 -6.3 91 -8 -8 1019.6 906.5 -5.2
06 26.03 С 1 50 км ясно +4.4 -4.4 53 +4 +11 1015.2 906.2
09 26.03 СВ 1 50 км ясно +12.2 -5.6 28 +13 +28 опасность
простуды
1010.3 904.6
12 26.03 С 4 50 км ясно +14.2 -4.8 26 +13 +18 1009.1 904.2
15 26.03 С 2 50 км ясно +11.1 -6.6 28 +11 +11 1010.6 904.5 +14.6
18 26.03 Ю 2 50 км ясно +2.3 -3.1 67 -1 -1 1015.4 905.6

 

Местоположение метеостанции Зеленчукская (Карачаево-Черкессия, Россия): широта 43.87 долгота 41.57 высота над уровнем моря 929 м.

В архиве по умолчанию представлена погода в Зеленчукской за последнюю неделю. Архивные данные за месяц целиком и за предыдущие месяцы, начиная с января 2011 года, Вы можете получить, выбрав интересующий диапазон дат из раскрывающегося списка и нажав кнопку "Ввод!".


*Определитесь, кто Вы:
робот инопланетянин человек

Внимание! Время в таблицах - всемирное. Для получения местного времени необходимо прибавить поправку, которая равна 3 ч.

Смотрите также архив погоды в соседних городах и на ближайших метеорологических станциях:

Погода в Теберде (Карачаево-Черкессия, Россия) (48 км)
Погода в Черкесске (Карачаево-Черкессия, Россия) (56 км)
Погода в Домбае (Карачаево-Черкессия, Россия) (56 км)
Погода в Отрадной (Краснодарский край, Россия) (59 км)
Погода в Архызе (Карачаево-Черкессия, Россия) (63 км)
Погода в Псебае (Краснодарский край, Россия) (70 км)
Погода на Клухорском Перевале (Карачаево-Черкессия, Россия) (87 км)
Погода в Шаджатмазе (Карачаево-Черкессия, Россия) (90 км)
Погода в Невинномысске (Ставропольский край, Россия) (90 км)
Погода в Кисловодске (Ставропольский край, Россия) (92 км)

Пояснения к столбцам:

Ветер - указаны скорость ветра в м/с - средняя за 10 мин, порывы в срок и между сроками (в фигурных скобках) и направление, откуда дует ветер: С - северный, СВ - северо-восточный, В - восточный, ЮВ - юго-восточный, Ю - южный, ЮЗ - юго-западный, З - западный, СЗ - северо-западный.
Видимость - горизонтальная дальность видимости в метрах или километрах. При видимости от 1 до 10 км при отсутствии осадков обычно наблюдается дымка, при ухудшении видимости до 1 км и менее - туман. В сухую погоду видимость может ухудшаться дымом, пылью или мглою.
Явления - указаны атмосферные явления, наблюдавшиеся в срок или в последний час перед сроком; фигурными скобками обозначены явления, наблюдавшиеся между сроками (за 1-3 часа до срока); квадратными скобками обозначены град или гололедные отложения с указанием их диаметра в мм.
Облачность - указаны через наклонную черту общая и нижняя облачность в баллах и высота нижней границы облаков в метрах; квадратными скобками обозначены формы облаков: Ci - перистые, Cs - перисто-слоистые, Cc - перисто-кучевые, Ac - высококучевые, As - высокослоистые, Sc - слоисто-кучевые, Ns - слоисто-дождевые, Cu - кучевые, Cb - кучево-дождевые. Подробнее классификацию облаков см. в Атласе облаков (PDF).
T - Температура воздуха - температура, измеренная на высоте 2 м над землей.
Td - Температура точки росы - температура, при понижении до которой содержащийся в воздухе водяной пар достигнет насыщения.
f - Относительная влажность воздуха - влажноcть воздуха, измеренная на высоте 2 м над землей.
Te - Эффективная температура - температура, которую ощущает одетый по сезону человек в тени. Характеристика душности погоды. При расчете учитывается влияние влажности воздуха и скорости ветра на теплоощущения человека.
Tes - Эффективная температура на солнце - температура, которую ощущает человек, с поправкой на солнечный нагрев. Характеристика знойности погоды. Зависит от высоты солнца над горизонтом, облачности и скорости ветра. Ночью, в пасмурную погоду, а также при ветре 12 м/с и более поправка равна нулю.
P - Атмосферное давление - приведенное к уровню моря атмосферное давление.
Po - Атмосферное давление - измеренное на уровне метеостанции атмосферное давление.
Tmin - Минимальная температура - минимум температуры воздуха на высоте 2 м над землей.
Tmax - Максимальная температура - максимум температуры воздуха на высоте 2 м над землей.
R - Количество осадков - Количество выпавших осадков за период времени, мм. При наведении курсора мыши на число - период времени, за который выпало указанное количество осадков.
R24 - Количество осадков - Количество выпавших осадков за 24 часа, мм.
S - Снежный покров - Высота снежного покрова, см. При наведении курсора мыши на число - состояние снежного покрова и степень покрытия местности в баллах.